Location: Le Moustier
(44.1000°N, 6.5167°E)
Time: 06:40:09
(UTC+00:00)

Cosmos 967 Rocket - Pass Details

Date: 13 December 2025
Orbit: 941 x 994 km, 65.8° (Epoch: 13 January)

Event Time Altitude Azimuth Distance (km) Brightness Sun altitude
Rises 17:54:04 0° 206° (SSW) 3,631 8.1 -20.4°
Reaches altitude 10° 17:56:35 10° 205° (SSW) 2,696 7.3 -20.8°
Maximum altitude 18:02:54 77° 120° (ESE) 1,003 4.4 -21.9°
Enters shadow 18:05:44 36° 41° (NE) 1,517 5.1 -22.4°
